SAS5GE EGLL-EKCH

Flight info

Callsign SAS5GE
Flight time 1h 27m
Altitude 37000
Route BPK Q295 PAAVO M604 GIVPO DCT VENAS DCT LARGA DCT SOPTO DCT DOREV DCT TESPI
Aircraft A321/M-SDE3FGHIRWY/LB1

Departure

Time 2026-04-24 12:33
Airport London Heathrow Airport (EGLL)

Arrival

Time 2026-04-24 14:01
Airport Copenhagen Kastrup Airport (EKCH)
Time Latitude Longitude Altitude Speed Heading
2026-04-24 12:05 51.46811 -0.45043 86 ft 0 kts 358°
2026-04-24 12:22 51.46797 -0.45042 90 ft 3 kts 353°
2026-04-24 12:22 51.46778 -0.45036 87 ft 3 kts 338°
2026-04-24 12:22 51.46761 -0.45021 90 ft 3 kts 310°
2026-04-24 12:23 51.46753 -0.45000 90 ft 1 kts 272°
2026-04-24 12:23 51.46753 -0.44996 85 ft 0 kts 270°
2026-04-24 12:25 51.46753 -0.45032 85 ft 7 kts 270°
2026-04-24 12:26 51.46753 -0.45132 85 ft 10 kts 270°
2026-04-24 12:26 51.46753 -0.45250 85 ft 11 kts 269°
2026-04-24 12:26 51.46751 -0.45381 85 ft 12 kts 268°
2026-04-24 12:26 51.46750 -0.45527 85 ft 14 kts 270°
2026-04-24 12:27 51.46749 -0.45686 85 ft 15 kts 269°
2026-04-24 12:27 51.46692 -0.45780 86 ft 13 kts 201°
2026-04-24 12:27 51.46661 -0.45927 82 ft 16 kts 270°
2026-04-24 12:27 51.46660 -0.46101 89 ft 15 kts 269°
2026-04-24 12:28 51.46658 -0.46268 87 ft 15 kts 270°
2026-04-24 12:28 51.46660 -0.46427 90 ft 14 kts 271°
2026-04-24 12:28 51.46659 -0.46586 92 ft 15 kts 269°
2026-04-24 12:28 51.46659 -0.46754 92 ft 16 kts 270°
2026-04-24 12:29 51.46659 -0.46942 90 ft 18 kts 270°
2026-04-24 12:29 51.46657 -0.47156 85 ft 21 kts 269°
2026-04-24 12:29 51.46656 -0.47393 83 ft 20 kts 270°
2026-04-24 12:29 51.46656 -0.47622 81 ft 21 kts 270°
2026-04-24 12:30 51.46654 -0.47847 82 ft 18 kts 268°
2026-04-24 12:30 51.46654 -0.47985 84 ft 8 kts 270°
2026-04-24 12:30 51.46654 -0.48064 85 ft 4 kts 270°
2026-04-24 12:30 51.46654 -0.48110 86 ft 5 kts 270°
2026-04-24 12:31 51.46646 -0.48185 87 ft 7 kts 243°
2026-04-24 12:31 51.46607 -0.48213 88 ft 4 kts 185°
2026-04-24 12:31 51.46539 -0.48216 86 ft 15 kts 180°
2026-04-24 12:31 51.46480 -0.48145 86 ft 10 kts 94°
2026-04-24 12:32 51.46480 -0.48135 85 ft 0 kts 89°
2026-04-24 12:32 51.46480 -0.48056 84 ft 28 kts 90°
2026-04-24 12:32 51.46482 -0.47318 83 ft 102 kts 89°
2026-04-24 12:32 51.46487 -0.45867 86 ft 157 kts 90°
2026-04-24 12:33 51.46486 -0.44014 603 ft 165 kts 91°
2026-04-24 12:33 51.46513 -0.42170 1398 ft 167 kts 83°
2026-04-24 12:33 51.46948 -0.40338 1836 ft 189 kts 55°
2026-04-24 12:33 51.47832 -0.38639 2075 ft 214 kts 52°
2026-04-24 12:34 51.48864 -0.36677 2436 ft 239 kts 51°
2026-04-24 12:34 51.49944 -0.34612 3100 ft 249 kts 52°
2026-04-24 12:34 51.51069 -0.32463 3893 ft 254 kts 52°
2026-04-24 12:34 51.52154 -0.30211 4673 ft 255 kts 63°
2026-04-24 12:35 51.52824 -0.27567 5411 ft 258 kts 73°
2026-04-24 12:35 51.53409 -0.24817 6181 ft 263 kts 71°
2026-04-24 12:35 51.54309 -0.22236 6891 ft 270 kts 53°
2026-04-24 12:35 51.55768 -0.20288 7570 ft 279 kts 30°
2026-04-24 12:36 51.57590 -0.19130 8298 ft 284 kts 23°
2026-04-24 12:36 51.59438 -0.18001 9014 ft 287 kts 20°
2026-04-24 12:36 51.61356 -0.17052 9745 ft 290 kts 19°
2026-04-24 12:36 51.63294 -0.16111 10433 ft 293 kts 18°
2026-04-24 12:37 51.65315 -0.15146 10664 ft 314 kts 18°
2026-04-24 12:37 51.67483 -0.14121 10796 ft 335 kts 17°
2026-04-24 12:37 51.69760 -0.13033 11192 ft 345 kts 21°
2026-04-24 12:37 51.71910 -0.11303 11720 ft 347 kts 37°
2026-04-24 12:38 51.73697 -0.08707 12272 ft 348 kts 52°
2026-04-24 12:38 51.75001 -0.05420 12844 ft 348 kts 68°
2026-04-24 12:38 51.75727 -0.01697 13410 ft 349 kts 82°
2026-04-24 12:39 51.76706 0.10131 14975 ft 362 kts 84°
2026-04-24 12:39 51.77036 0.14181 15506 ft 365 kts 83°
2026-04-24 12:39 51.77370 0.18266 16015 ft 369 kts 84°
2026-04-24 12:40 51.77708 0.22392 16564 ft 372 kts 84°
2026-04-24 12:40 51.78048 0.26549 17080 ft 375 kts 84°
2026-04-24 12:40 51.78389 0.30745 17601 ft 378 kts 84°
2026-04-24 12:40 51.78729 0.34974 18118 ft 381 kts 84°
2026-04-24 12:41 51.79069 0.39244 18624 ft 385 kts 84°
2026-04-24 12:41 51.79410 0.43545 19060 ft 388 kts 84°
2026-04-24 12:41 51.79756 0.47890 19501 ft 391 kts 84°
2026-04-24 12:41 51.80103 0.52268 19917 ft 395 kts 84°
2026-04-24 12:42 51.80451 0.56686 20331 ft 398 kts 84°
2026-04-24 12:42 51.80800 0.61140 20752 ft 401 kts 84°
2026-04-24 12:42 51.81344 0.65577 21202 ft 404 kts 75°
2026-04-24 12:42 51.82332 0.69856 21638 ft 408 kts 68°
2026-04-24 12:43 51.83442 0.74097 22085 ft 411 kts 69°
2026-04-24 12:43 51.84552 0.78369 22503 ft 413 kts 69°
2026-04-24 12:43 51.85774 0.82589 22911 ft 417 kts 62°
2026-04-24 12:43 51.87412 0.86492 23300 ft 422 kts 51°
2026-04-24 12:44 51.89451 0.89927 23693 ft 425 kts 42°
2026-04-24 12:44 51.91670 0.93132 24050 ft 428 kts 42°
2026-04-24 12:44 51.93899 0.96363 24376 ft 431 kts 42°
2026-04-24 12:44 51.96140 0.99626 24708 ft 434 kts 42°
2026-04-24 12:45 51.98386 1.02909 25050 ft 436 kts 41°
2026-04-24 12:45 52.00643 1.06222 25371 ft 439 kts 41°
2026-04-24 12:45 52.02883 1.09519 25677 ft 442 kts 41°
2026-04-24 12:45 52.05185 1.12847 26038 ft 444 kts 38°
2026-04-24 12:46 52.07647 1.15877 26377 ft 445 kts 36°
2026-04-24 12:46 52.10135 1.18897 26689 ft 448 kts 35°
2026-04-24 12:46 52.12636 1.21954 26983 ft 451 kts 36°
2026-04-24 12:46 52.15106 1.25134 27273 ft 454 kts 38°
2026-04-24 12:47 52.17543 1.28428 27562 ft 457 kts 38°
2026-04-24 12:47 52.19970 1.31802 27848 ft 460 kts 39°
2026-04-24 12:47 52.22407 1.35214 28124 ft 463 kts 39°
2026-04-24 12:47 52.24868 1.38637 28409 ft 466 kts 38°
2026-04-24 12:48 52.27355 1.42066 28687 ft 469 kts 38°
2026-04-24 12:48 52.29854 1.45495 29046 ft 470 kts 39°
2026-04-24 12:48 52.32368 1.48932 29362 ft 472 kts 39°
2026-04-24 12:48 52.34786 1.52583 29593 ft 476 kts 45°
2026-04-24 12:49 52.37109 1.56458 29852 ft 479 kts 45°
2026-04-24 12:49 52.39441 1.60365 30118 ft 481 kts 45°
2026-04-24 12:49 52.41786 1.64306 30368 ft 484 kts 45°
2026-04-24 12:49 52.44137 1.68265 30580 ft 486 kts 45°
2026-04-24 12:50 52.46499 1.72252 30783 ft 488 kts 45°
2026-04-24 12:50 52.48868 1.76260 30980 ft 490 kts 45°
2026-04-24 12:50 52.51244 1.80289 31187 ft 492 kts 45°
2026-04-24 12:50 52.53622 1.84334 31473 ft 490 kts 45°
2026-04-24 12:51 52.55987 1.88364 31780 ft 489 kts 45°
2026-04-24 12:51 52.58349 1.92393 32041 ft 489 kts 45°
2026-04-24 12:51 52.60712 1.96419 32289 ft 489 kts 45°
2026-04-24 12:51 52.63079 2.00450 32530 ft 489 kts 45°
2026-04-24 12:52 52.65449 2.04494 32738 ft 491 kts 45°
2026-04-24 12:52 52.67817 2.08544 32970 ft 491 kts 45°
2026-04-24 12:52 52.70154 2.12549 33205 ft 491 kts 45°
2026-04-24 12:52 52.72520 2.16614 33444 ft 491 kts 45°
2026-04-24 12:53 52.74885 2.20684 33702 ft 491 kts 45°
2026-04-24 12:53 52.77243 2.24753 34031 ft 489 kts 46°
2026-04-24 12:53 52.79589 2.28811 34321 ft 488 kts 45°
2026-04-24 12:53 52.81931 2.32863 34553 ft 487 kts 45°
2026-04-24 12:54 52.83512 2.35601 34684 ft 487 kts 45°
2026-04-24 12:54 52.85850 2.39656 34902 ft 486 kts 45°
2026-04-24 12:54 52.88181 2.43705 35112 ft 486 kts 45°
2026-04-24 12:54 52.90512 2.47758 35323 ft 485 kts 45°
2026-04-24 12:55 52.92838 2.51814 35539 ft 485 kts 45°
2026-04-24 12:55 52.95125 2.55813 35715 ft 485 kts 45°
2026-04-24 12:55 52.97535 2.59730 35888 ft 484 kts 38°
2026-04-24 12:55 53.00231 2.63047 36144 ft 480 kts 30°
2026-04-24 12:56 53.03144 2.65704 36403 ft 477 kts 24°
2026-04-24 12:56 53.06111 2.68155 36625 ft 476 kts 24°
2026-04-24 12:56 53.09110 2.70638 36836 ft 475 kts 24°
2026-04-24 12:56 53.12065 2.73090 37027 ft 474 kts 24°
2026-04-24 12:57 53.14975 2.75513 37223 ft 473 kts 24°
2026-04-24 12:57 53.17921 2.77970 37352 ft 473 kts 24°
2026-04-24 12:57 53.20868 2.80429 37368 ft 473 kts 24°
2026-04-24 12:58 53.26738 2.85339 37366 ft 471 kts 24°
2026-04-24 12:58 53.32628 2.90125 37361 ft 470 kts 22°
2026-04-24 12:59 53.38606 2.94538 37361 ft 469 kts 21°
2026-04-24 12:59 53.44601 2.98913 37362 ft 470 kts 21°
2026-04-24 13:00 53.50568 3.03393 37367 ft 470 kts 22°
2026-04-24 13:00 53.56535 3.07932 37380 ft 471 kts 22°
2026-04-24 13:01 53.62511 3.12484 37371 ft 471 kts 22°
2026-04-24 13:01 53.68492 3.17043 37374 ft 472 kts 22°
2026-04-24 13:02 53.74480 3.21619 37390 ft 472 kts 22°
2026-04-24 13:02 53.80456 3.26204 37386 ft 472 kts 22°
2026-04-24 13:03 53.86431 3.30796 37385 ft 471 kts 22°
2026-04-24 13:03 53.92394 3.35407 37381 ft 471 kts 22°
2026-04-24 13:04 53.98315 3.39992 37383 ft 470 kts 22°
2026-04-24 13:04 54.04257 3.44615 37379 ft 469 kts 22°
2026-04-24 13:05 54.10193 3.49248 37375 ft 469 kts 22°
2026-04-24 13:05 54.16121 3.53876 37375 ft 468 kts 22°
2026-04-24 13:06 54.22041 3.58506 37381 ft 468 kts 23°
2026-04-24 13:06 54.27948 3.63147 37369 ft 467 kts 23°
2026-04-24 13:07 54.33818 3.67912 37367 ft 466 kts 25°
2026-04-24 13:07 54.39577 3.73040 37365 ft 466 kts 26°
2026-04-24 13:08 54.45304 3.78293 37364 ft 466 kts 26°
2026-04-24 13:08 54.51045 3.83476 37366 ft 466 kts 26°
2026-04-24 13:09 54.59672 3.91184 37362 ft 465 kts 26°
2026-04-24 13:09 54.65413 3.96333 37360 ft 465 kts 26°
2026-04-24 13:10 54.71150 4.01490 37361 ft 464 kts 26°
2026-04-24 13:10 54.76871 4.06664 37361 ft 463 kts 26°
2026-04-24 13:11 54.82583 4.11864 37358 ft 463 kts 26°
2026-04-24 13:11 54.87830 4.18177 37357 ft 464 kts 43°
2026-04-24 13:12 54.92229 4.26392 37356 ft 464 kts 47°
2026-04-24 13:12 54.96633 4.34713 37352 ft 464 kts 46°
2026-04-24 13:13 55.00973 4.42941 37338 ft 464 kts 46°
2026-04-24 13:13 55.05329 4.51239 37338 ft 464 kts 46°
2026-04-24 13:14 55.09677 4.59574 37341 ft 464 kts 46°
2026-04-24 13:14 55.14025 4.67924 37330 ft 464 kts 46°
2026-04-24 13:15 55.18367 4.76295 37332 ft 464 kts 46°
2026-04-24 13:15 55.22695 4.84680 37330 ft 464 kts 47°
2026-04-24 13:16 55.27009 4.93094 37317 ft 464 kts 49°
2026-04-24 13:16 55.30349 5.02749 37320 ft 465 kts 68°
2026-04-24 13:17 55.31922 5.13725 37305 ft 465 kts 81°
2026-04-24 13:17 55.33004 5.24912 37303 ft 465 kts 81°
2026-04-24 13:18 55.34093 5.36124 37294 ft 465 kts 81°
2026-04-24 13:18 55.35174 5.47326 37299 ft 465 kts 81°
2026-04-24 13:19 55.36238 5.58555 37291 ft 466 kts 81°
2026-04-24 13:19 55.37282 5.69828 37289 ft 467 kts 81°
2026-04-24 13:20 55.38332 5.81109 37283 ft 468 kts 81°
2026-04-24 13:20 55.39369 5.92345 37285 ft 469 kts 81°
2026-04-24 13:21 55.40401 6.03682 37272 ft 469 kts 81°
2026-04-24 13:21 55.41416 6.15035 37269 ft 470 kts 81°
2026-04-24 13:22 55.42430 6.26416 37252 ft 471 kts 81°
2026-04-24 13:22 55.43433 6.37824 37250 ft 472 kts 81°
2026-04-24 13:23 55.44427 6.49257 37250 ft 472 kts 81°
2026-04-24 13:23 55.45405 6.60687 37254 ft 472 kts 81°
2026-04-24 13:24 55.46374 6.72073 37248 ft 473 kts 81°
2026-04-24 13:24 55.47348 6.83610 37243 ft 473 kts 81°
2026-04-24 13:25 55.48292 6.95036 37236 ft 474 kts 81°
2026-04-24 13:25 55.49234 7.06536 37235 ft 474 kts 81°
2026-04-24 13:26 55.50172 7.18050 37229 ft 474 kts 81°
2026-04-24 13:26 55.51090 7.29564 37229 ft 475 kts 81°
2026-04-24 13:27 55.52000 7.41134 37208 ft 476 kts 81°
2026-04-24 13:27 55.52906 7.52712 37209 ft 477 kts 81°
2026-04-24 13:28 55.54140 7.64194 37204 ft 476 kts 75°
2026-04-24 13:28 55.55695 7.75586 37216 ft 476 kts 75°
2026-04-24 13:29 55.57232 7.86977 37210 ft 477 kts 75°
2026-04-24 13:29 55.58754 7.98407 37192 ft 478 kts 75°
2026-04-24 13:30 55.60280 8.09865 37178 ft 479 kts 75°
2026-04-24 13:30 55.61796 8.21350 37178 ft 480 kts 75°
2026-04-24 13:31 55.63308 8.32849 37170 ft 480 kts 75°
2026-04-24 13:31 55.64809 8.44368 37177 ft 480 kts 75°
2026-04-24 13:32 55.66292 8.55911 37154 ft 481 kts 75°
2026-04-24 13:32 55.67756 8.67402 37151 ft 482 kts 75°
2026-04-24 13:33 55.69226 8.78986 37145 ft 482 kts 75°
2026-04-24 13:33 55.70686 8.90598 37150 ft 482 kts 75°
2026-04-24 13:34 55.72128 9.02220 37162 ft 483 kts 75°
2026-04-24 13:34 55.73567 9.13872 37150 ft 484 kts 75°
2026-04-24 13:35 55.74996 9.25549 37142 ft 485 kts 75°
2026-04-24 13:35 55.76418 9.37262 37139 ft 485 kts 75°
2026-04-24 13:36 55.77832 9.49002 37090 ft 486 kts 75°
2026-04-24 13:36 55.79241 9.60748 37117 ft 486 kts 75°
2026-04-24 13:37 55.80635 9.72521 37102 ft 487 kts 75°
2026-04-24 13:37 55.82016 9.84319 37097 ft 488 kts 75°
2026-04-24 13:38 55.83378 9.96059 37098 ft 488 kts 75°
2026-04-24 13:38 55.84742 10.07890 37098 ft 488 kts 75°
2026-04-24 13:39 55.85872 10.17815 37101 ft 488 kts 75°
2026-04-24 13:39 55.87205 10.29599 37115 ft 489 kts 75°
2026-04-24 13:40 55.88538 10.41460 37099 ft 487 kts 75°
2026-04-24 13:40 55.89503 10.53417 37093 ft 492 kts 90°
2026-04-24 13:41 55.89089 10.59469 37097 ft 494 kts 101°
2026-04-24 13:41 55.88357 10.65449 37097 ft 494 kts 101°
2026-04-24 13:41 55.86890 10.77421 37099 ft 495 kts 101°
2026-04-24 13:42 55.85406 10.89478 37102 ft 496 kts 101°
2026-04-24 13:42 55.83857 11.01351 37105 ft 496 kts 103°
2026-04-24 13:43 55.82075 11.13218 37104 ft 497 kts 104°
2026-04-24 13:43 55.80241 11.25056 37104 ft 497 kts 104°
2026-04-24 13:44 55.78437 11.36910 37116 ft 497 kts 104°
2026-04-24 13:44 55.76919 11.48857 36594 ft 492 kts 98°
2026-04-24 13:45 55.76397 11.54861 35303 ft 491 kts 96°
2026-04-24 13:45 55.75945 11.60842 34307 ft 485 kts 96°
2026-04-24 13:45 55.75563 11.66726 33310 ft 475 kts 89°
2026-04-24 13:45 55.75833 11.72451 32327 ft 458 kts 71°
2026-04-24 13:46 55.76888 11.77679 31303 ft 444 kts 61°
2026-04-24 13:46 55.78156 11.82632 30316 ft 437 kts 60°
2026-04-24 13:46 55.79422 11.87493 29264 ft 430 kts 60°
2026-04-24 13:46 55.80660 11.92290 28210 ft 424 kts 60°
2026-04-24 13:47 55.81772 11.97081 27434 ft 416 kts 69°
2026-04-24 13:47 55.82227 12.02111 26720 ft 411 kts 86°
2026-04-24 13:47 55.81893 12.07131 25898 ft 409 kts 104°
2026-04-24 13:47 55.80795 12.11763 25041 ft 405 kts 122°
2026-04-24 13:48 55.79041 12.15628 24188 ft 399 kts 140°
2026-04-24 13:48 55.76814 12.18442 23298 ft 390 kts 156°
2026-04-24 13:48 55.74320 12.20240 21997 ft 387 kts 168°
2026-04-24 13:48 55.71726 12.21489 20891 ft 386 kts 170°
2026-04-24 13:49 55.69136 12.22671 19932 ft 381 kts 170°
2026-04-24 13:49 55.66588 12.23795 19053 ft 375 kts 170°
2026-04-24 13:49 55.64073 12.24887 18157 ft 369 kts 170°
2026-04-24 13:49 55.61591 12.25817 17180 ft 360 kts 180°
2026-04-24 13:50 55.59169 12.25458 16262 ft 342 kts 201°
2026-04-24 13:50 55.56921 12.24187 15280 ft 338 kts 205°
2026-04-24 13:50 55.54720 12.22799 14361 ft 335 kts 205°
2026-04-24 13:50 55.52539 12.21398 13438 ft 332 kts 205°
2026-04-24 13:51 55.50387 12.20005 12503 ft 328 kts 205°
2026-04-24 13:51 55.48263 12.18623 11635 ft 323 kts 205°
2026-04-24 13:51 55.46172 12.17252 10780 ft 319 kts 205°
2026-04-24 13:51 55.44114 12.15896 10129 ft 309 kts 205°
2026-04-24 13:52 55.42131 12.14594 9454 ft 301 kts 205°
2026-04-24 13:52 55.40166 12.13409 8672 ft 298 kts 194°
2026-04-24 13:52 55.38103 12.13440 7941 ft 299 kts 167°
2026-04-24 13:52 55.36259 12.15039 7205 ft 296 kts 136°
2026-04-24 13:53 55.35139 12.17965 6492 ft 287 kts 103°
2026-04-24 13:53 55.35032 12.21283 6139 ft 259 kts 73°
2026-04-24 13:53 55.35667 12.24017 5727 ft 237 kts 48°
2026-04-24 13:53 55.36781 12.26016 5139 ft 226 kts 35°
2026-04-24 13:54 55.37967 12.27802 4547 ft 223 kts 35°
2026-04-24 13:54 55.39082 12.29498 4512 ft 199 kts 35°
2026-04-24 13:54 55.40082 12.31022 4511 ft 185 kts 34°
2026-04-24 13:54 55.41049 12.32488 4499 ft 183 kts 34°
2026-04-24 13:55 55.42012 12.33953 4440 ft 183 kts 34°
2026-04-24 13:55 55.42971 12.35415 4259 ft 181 kts 34°
2026-04-24 13:55 55.43918 12.36862 4032 ft 179 kts 34°
2026-04-24 13:55 55.44860 12.38300 3798 ft 179 kts 34°
2026-04-24 13:56 55.45760 12.39682 3572 ft 163 kts 33°
2026-04-24 13:56 55.46598 12.40963 3354 ft 157 kts 32°
2026-04-24 13:56 55.47423 12.42223 3141 ft 157 kts 32°
2026-04-24 13:56 55.48249 12.43486 2925 ft 158 kts 33°
2026-04-24 13:57 55.49083 12.44762 2713 ft 159 kts 33°
2026-04-24 13:57 55.49914 12.46036 2492 ft 158 kts 33°
2026-04-24 13:57 55.50743 12.47308 2275 ft 158 kts 34°
2026-04-24 13:57 55.51573 12.48581 2061 ft 159 kts 33°
2026-04-24 13:58 55.52410 12.49866 1843 ft 160 kts 34°
2026-04-24 13:58 55.53251 12.51158 1624 ft 160 kts 34°
2026-04-24 13:58 55.54087 12.52446 1405 ft 159 kts 34°
2026-04-24 13:58 55.54963 12.53789 1182 ft 164 kts 34°
2026-04-24 13:59 55.55765 12.55035 962 ft 146 kts 34°
2026-04-24 13:59 55.56514 12.56188 764 ft 138 kts 34°
2026-04-24 13:59 55.57238 12.57300 574 ft 137 kts 34°
2026-04-24 13:59 55.57944 12.58382 385 ft 134 kts 35°
2026-04-24 14:00 55.58644 12.59448 223 ft 131 kts 37°
2026-04-24 14:00 55.59329 12.60515 68 ft 130 kts 38°
2026-04-24 14:00 55.59979 12.61516 27 ft 110 kts 41°
2026-04-24 14:00 55.60426 12.62209 24 ft 61 kts 42°
2026-04-24 14:01 55.60655 12.62563 31 ft 38 kts 41°
2026-04-24 14:01 55.60843 12.62798 26 ft 25 kts 22°
2026-04-24 14:01 55.61013 12.62882 24 ft 26 kts 11°
2026-04-24 14:01 55.61179 12.62998 24 ft 26 kts 39°
2026-04-24 14:02 55.61307 12.63195 24 ft 24 kts 42°
2026-04-24 14:02 55.61435 12.63393 24 ft 25 kts 41°
2026-04-24 14:02 55.61566 12.63596 24 ft 25 kts 41°
2026-04-24 14:02 55.61700 12.63804 24 ft 26 kts 41°
2026-04-24 14:03 55.61835 12.64014 24 ft 25 kts 40°
2026-04-24 14:03 55.61950 12.64136 24 ft 16 kts 25°
2026-04-24 14:03 55.62055 12.64223 24 ft 17 kts 25°
2026-04-24 14:03 55.62140 12.64293 24 ft 12 kts 25°
2026-04-24 14:04 55.62149 12.64301 23 ft 2 kts 25°
2026-04-24 14:04 55.62188 12.64334 22 ft 12 kts 25°
2026-04-24 14:04 55.62260 12.64436 22 ft 14 kts 63°
2026-04-24 14:04 55.62298 12.64592 24 ft 13 kts 66°
2026-04-24 14:05 55.62337 12.64748 25 ft 15 kts 66°
2026-04-24 14:05 55.62334 12.64918 25 ft 15 kts 121°
2026-04-24 14:05 55.62277 12.65087 25 ft 16 kts 103°
2026-04-24 14:05 55.62347 12.65203 24 ft 15 kts 358°
2026-04-24 14:06 55.62455 12.65193 24 ft 16 kts 350°
2026-04-24 14:06 55.62563 12.65183 24 ft 15 kts 359°
2026-04-24 14:06 55.62642 12.65211 25 ft 11 kts 44°
2026-04-24 14:06 55.62648 12.65316 24 ft 7 kts 97°
2026-04-24 14:07 55.62679 12.65370 24 ft 7 kts 28°
2026-04-24 14:07 55.62705 12.65394 24 ft 0 kts 27°